Syracuse, NY

8:39 PM EDT on August 17, 2017 (GMT -0400)
Syracuse Hancock International

Weather History for KSYR - August, 2013

Change the Weather History Date:

Saturday, August 17, 2013

  Actual Average Record
Temperature  
Mean Temperature 67 °F 70 °F  
Max Temperature 81 °F 80 °F 97 °F (1987)
Min Temperature 53 °F 60 °F 44 °F (1979)
Degree Days  
Heating Degree Days 0 1  
Month to date heating degree days 3 4  
Since 1 June heating degree days 67 73  
Since 1 July heating degree days 6 12  
Cooling Degree Days 2 5  
Month to date cooling degree days 59 101  
Year to date cooling degree days 538 447  
Since 1 June cooling degree days 486 417  
Growing Degree Days 17 (Base 50)    
Moisture  
Dew Point 55 °F    
Average Humidity 68    
Maximum Humidity 93    
Minimum Humidity 42    
Precipitation  
Precipitation 0.00 in 0.12 in 0.85 in (1944)
Month to date precipitation 1.29 1.96  
Year to date precipitation 25.29 22.98  
Snow  
Snow 0.00 in 0.00 in 0.00 in (2002)
Month to date snowfall 0.0 0.0  
Since 1 June snowfall 0.0 0.0  
Since 1 July snowfall 0.0 0.0  
Snow Depth 0.00 in    
Sea Level Pressure  
Sea Level Pressure 30.26 in    
Wind  
Wind Speed 2 mph (East)    
Max Wind Speed 9 mph    
Max Gust Speed 10 mph    
Visibility 10 miles    
Events      
T = Trace of Precipitation, MM = Missing Value Source: NWS Daily Summary

Daily Weather History Graph

Daily Weather History Graph

Search for Another Location

Airport or City:

Trip Planner

Search our weather history database for the weather conditions in past years. The results will help you decide how hot, cold, wet, or windy it might be!

Date:

Astronomy

Aug. 17, 2013 Rise Set
Actual Time 6:12 AM EDT 8:03 PM EDT
Civil Twilight 5:42 AM EDT 8:33 PM EDT
Nautical Twilight 5:04 AM EDT 9:11 PM EDT
Astronomical Twilight 4:24 AM EDT 9:51 PM EDT
Moon 5:19 PM EDT (8/17) 2:10 AM EDT (8/17)
Length of Visible Light 14h 51m
Length of Day
13h 51m
Waxing Gibbous, 84% of the Moon is Illuminated
Aug 17
Waxing Gibbous
Aug 20
Full
Aug 28
Last Quarter
Sep 5
New
Sep 12
First Quarter

Hourly Weather History & Observations

Time (EDT) Temp. Heat Index Dew Point Humidity Pressure Visibility Wind Dir Wind Speed Gust Speed Precip Events Conditions
12:54 AM 59.0 °F - 53.1 °F 81% 30.22 in 10.0 mi SE 3.5 mph - N/A   Partly Cloudy
1:54 AM 57.0 °F - 52.0 °F 83% 30.23 in 10.0 mi SE 3.5 mph - N/A   Scattered Clouds
2:54 AM 55.0 °F - 51.1 °F 86% 30.23 in 10.0 mi ESE 3.5 mph - N/A   Scattered Clouds
3:54 AM 55.0 °F - 51.1 °F 86% 30.25 in 10.0 mi Calm Calm - N/A   Clear
4:54 AM 54.0 °F - 51.1 °F 90% 30.25 in 10.0 mi ESE 3.5 mph - N/A   Clear
5:54 AM 53.1 °F - 50.0 °F 89% 30.27 in 10.0 mi ESE 3.5 mph - N/A   Clear
6:54 AM 54.0 °F - 51.1 °F 90% 30.28 in 10.0 mi Calm Calm - N/A   Clear
7:54 AM 59.0 °F - 53.1 °F 81% 30.29 in 10.0 mi Calm Calm - N/A   Partly Cloudy
8:54 AM 63.0 °F - 54.0 °F 72% 30.28 in 10.0 mi Calm Calm - N/A   Partly Cloudy
9:54 AM 68.0 °F - 57.0 °F 68% 30.29 in 10.0 mi Calm Calm - N/A   Scattered Clouds
10:54 AM 72.0 °F - 55.9 °F 57% 30.30 in 10.0 mi SSE 3.5 mph - N/A   Scattered Clouds
11:54 AM 75.0 °F - 57.0 °F 53% 30.29 in 10.0 mi Variable 3.5 mph - N/A   Scattered Clouds
12:54 PM 78.1 °F - 55.9 °F 46% 30.27 in 10.0 mi Variable 4.6 mph - N/A   Scattered Clouds
1:54 PM 80.1 °F 80.2 °F 55.9 °F 43% 30.26 in 10.0 mi Variable 3.5 mph - N/A   Mostly Cloudy
2:54 PM 78.1 °F - 55.0 °F 45% 30.25 in 10.0 mi East 3.5 mph - N/A   Mostly Cloudy
3:54 PM 80.1 °F 80.2 °F 55.9 °F 43% 30.24 in 10.0 mi Calm Calm - N/A   Mostly Cloudy
4:54 PM 79.0 °F - 57.0 °F 47% 30.24 in 10.0 mi NE 3.5 mph - N/A   Mostly Cloudy
5:54 PM 79.0 °F - 59.0 °F 50% 30.24 in 10.0 mi North 6.9 mph - N/A   Mostly Cloudy
6:54 PM 75.9 °F - 60.1 °F 58% 30.24 in 10.0 mi NNE 3.5 mph - N/A   Scattered Clouds
7:54 PM 72.0 °F - 59.0 °F 64% 30.23 in 10.0 mi NNE 3.5 mph - N/A   Mostly Cloudy
8:54 PM 66.9 °F - 57.9 °F 73% 30.24 in 10.0 mi Calm Calm - N/A   Scattered Clouds
9:54 PM 66.0 °F - 57.9 °F 75% 30.25 in 10.0 mi Calm Calm - N/A   Scattered Clouds
10:54 PM 64.9 °F - 57.9 °F 78% 30.25 in 10.0 mi ESE 3.5 mph - N/A   Scattered Clouds
11:54 PM 64.9 °F - 59.0 °F 81% 30.25 in 10.0 mi Calm Calm - N/A   Mostly Cloudy